Probability
0 0 0 0 0 0 0 0 0 0 0 0 0 0 0 0 0 0 0 0 0 0 0 0 0 0 3 10 10 10 19 19 19 23 23 29 26 26
0 0 0 0 0 0 0 0 0 0 0 0 0 0 0 0 0 0 0 0 0 0 0 0 0 0 0 0 0 0 0 0 3 6 6 10 13 23
0 0 0 0 0 0 0 0 0 0 0 0 0 0 0 0 0 0 0 0 0 0 0 0 0 0 0 0 0 0 0 0 0 0 0 0 3 0
0 0 0 0 0 0 0 0 0 0 0 0 0 0 0 0 0 0 0 0 0 0 0 0 0 0 0 0 0 0 0 0 0 0 0 0 0 0
0 0 0 0 0 0 0 0 0 0 0 0 0 0 0 0 0 0 0 0 0 0 0 0 0 0 0 0 0 0 0 0 0 0 0 0 0 0
0 0 0 0 0 0 0 0 0 0 0 0 0 0 0 0 0 0 0 0 0 0 0 0 0 0 0 0 0 0 0 0 0 0 0 0 0 0
0 0 0 0 0 0 0 0 0 0 0 0 0 0 0 0 0 0 0 0 0 0 0 0 0 0 0 0 0 0 0 0 0 0 0 0 0 0
0 0 0 0 0 0 0 0 0 0 0 0 0 0 0 0 0 0 0 0 0 0 0 0 0 0 0 0 0 0 0 0 0 0 0 0 0 0
0 0 0 0 0 0 0 0 0 0 0 0 0 0 0 0 0 0 0 0 0 0 0 0 0 0 0 0 0 0 0 0 0 0 0 0 0 0
0 0 0 0 0 0 0 0 0 0 0 0 0 0 0 0 0 0 0 0 0 0 0 0 0 0 0 0 0 0 0 0 0 0 0 0 0 0
0 0 0 0 0 0 0 0 0 0 0 0 0 0 0 0 0 0 0 0 0 0 0 0 0 0 0 0 0 0 0 0 0 0 0 0 0 0
0 0 0 0 0 0 0 0 0 0 0 0 0 0 0 0 0 0 0 0 0 0 0 0 0 0 0 0 0 0 0 0 0 0 0 0 0 0
0 0 0 0 0 0 0 0 0 0 0 0 0 0 0 0 0 0 0 0 0 0 0 0 0 0 0 0 0 0 0 0 0 0 0 0 0 0
0 0 0 0 0 0 0 0 0 0 0 0 0 0 0 0 0 0 0 0 0 0 0 0 0 0 0 0 0 0 0 0 0 0 0 0 0 0
0 0 0 0 0 0 0 0 0 0 0 0 0 0 0 0 0 0 0 0 0 0 0 0 0 0 0 0 0 0 0 0 0 0 0 0 0 0
0 0 0 0 0 0 0 0 0 0 0 0 0 0 0 0 0 0 0 0 0 0 0 0 0 0 0 0 0 0 0 0 0 0 0 0 0 0
0 0 0 0 0 0 0 0 0 0 0 0 0 0 0 0 0 0 0 0 0 0 0 0 0 0 0 0 0 0 0 0 0 0 0 0 0 0
0 0 0 0 0 0 0 0 0 0 0 0 0 0 0 0 0 0 0 0 0 0 0 0 0 0 0 0 0 0 0 0 0 0 0 0 0 0
0 0 0 0 0 0 0 0 0 0 0 0 0 0 0 0 0 0 0 0 0 0 0 0 0 0 0 0 0 0 0 0 0 0 0 0 0 0
0 0 0 0 0 0 0 0 0 0 0 0 0 0 0 0 0 0 0 0 0 0 0 0 0 0 0 0 0 0 0 0 0 0 0 0 0 0
0 0 0 0 0 0 0 0 0 0 0 0 0 0 0 0 0 0 0 0 0 0 0 0 0 0 0 0 0 0 0 0 0 0 0 0 0 0
0 0 0 0 0 0 0 0 0 0 0 0 0 0 0 0 0 0 0 0 0 0 0 0 0 0 0 0 0 0 0 0 0 0 0 0 0 0
0 0 0 0 0 0 0 0 0 0 0 0 0 0 0 0 0 0 0 0 0 0 0 0 0 0 0 0 0 0 0 0 0 0 0 0 0 0
Height
5814 5812 5811 5809 5808 5808 5807 5807 5808 5809 5810 5811 5812 5814 5817 5819 5822 5824 5827 5830 5833 5835 5838 5841 5844 5846 5849 5852 5855 5857 5860 5862 5864 5867 5869 5871 5873 5875
5815 5813 5811 5809 5808 5807 5807 5807 5807 5807 5808 5809 5810 5812 5814 5816 5818 5821 5823 5826 5829 5831 5834 5837 5839 5842 5845 5847 5850 5853 5855 5858 5860 5862 5864 5866 5868 5870
5815 5813 5811 5809 5808 5807 5806 5805 5805 5806 5806 5807 5808 5809 5811 5812 5814 5817 5819 5822 5824 5827 5830 5832 5835 5837 5840 5842 5845 5847 5850 5852 5854 5857 5859 5861 5863 5865
5814 5812 5810 5808 5807 5806 5805 5804 5804 5804 5804 5805 5805 5806 5807 5809 5810 5812 5815 5817 5819 5822 5824 5827 5829 5832 5834 5837 5839 5842 5844 5846 5849 5851 5853 5855 5857 5858
5813 5811 5809 5808 5806 5805 5804 5803 5802 5802 5802 5802 5803 5803 5804 5805 5807 5808 5810 5812 5814 5816 5819 5821 5823 5826 5828 5831 5833 5835 5838 5840 5842 5844 5846 5848 5850 5852
5812 5810 5808 5806 5804 5803 5802 5801 5800 5799 5799 5799 5799 5800 5800 5801 5802 5803 5805 5806 5808 5810 5812 5815 5817 5819 5822 5824 5826 5828 5831 5833 5835 5837 5839 5841 5843 5845
5809 5807 5805 5804 5802 5800 5799 5798 5797 5796 5795 5795 5795 5795 5796 5796 5797 5798 5799 5800 5802 5804 5806 5808 5810 5812 5814 5817 5819 5821 5823 5825 5828 5829 5831 5833 5835 5837
5806 5804 5802 5800 5798 5796 5795 5793 5792 5791 5791 5790 5790 5790 5790 5790 5791 5792 5793 5794 5796 5797 5798 5800 5802 5804 5806 5809 5811 5813 5815 5817 5819 5821 5823 5825 5826 5828
5802 5800 5798 5795 5793 5792 5790 5788 5787 5785 5785 5784 5784 5783 5783 5783 5784 5784 5785 5786 5788 5789 5790 5792 5794 5796 5798 5800 5802 5804 5806 5808 5810 5812 5814 5816 5817 5819
5796 5793 5791 5789 5787 5785 5783 5782 5780 5778 5777 5776 5776 5776 5775 5775 5775 5776 5777 5778 5779 5780 5782 5783 5785 5787 5789 5791 5793 5795 5797 5799 5801 5803 5805 5806 5808 5810
5788 5786 5783 5781 5779 5776 5774 5773 5771 5769 5767 5766 5766 5766 5766 5766 5766 5767 5767 5769 5770 5771 5772 5774 5776 5777 5779 5781 5783 5785 5787 5789 5791 5793 5795 5797 5798 5800
5780 5777 5774 5771 5769 5766 5763 5762 5760 5759 5757 5756 5755 5755 5755 5755 5755 5756 5757 5758 5759 5761 5762 5763 5765 5767 5769 5771 5773 5775 5777 5779 5781 5783 5785 5787 5788 5790
5769 5766 5763 5760 5757 5754 5752 5750 5748 5747 5745 5744 5743 5743 5743 5743 5743 5744 5745 5746 5747 5749 5751 5752 5754 5756 5758 5760 5762 5764 5766 5768 5770 5772 5774 5776 5778 5779
5757 5754 5751 5748 5745 5742 5739 5736 5735 5733 5732 5731 5730 5730 5729 5729 5730 5730 5731 5732 5734 5736 5738 5740 5742 5744 5746 5748 5751 5753 5755 5757 5759 5761 5763 5765 5767 5768
5743 5740 5737 5733 5730 5727 5725 5722 5720 5718 5716 5715 5715 5715 5715 5715 5715 5716 5717 5719 5721 5723 5725 5727 5730 5732 5734 5737 5739 5741 5743 5746 5748 5750 5752 5753 5755 5757
5729 5725 5721 5718 5714 5711 5709 5706 5704 5702 5700 5700 5699 5699 5699 5699 5700 5701 5703 5705 5707 5710 5712 5714 5717 5719 5722 5724 5727 5729 5731 5734 5736 5738 5740 5742 5744 5745
5713 5709 5706 5702 5699 5695 5692 5690 5688 5686 5685 5684 5683 5683 5684 5684 5685 5686 5688 5690 5693 5696 5699 5701 5703 5706 5709 5711 5714 5717 5719 5722 5724 5726 5728 5730 5732 5734
5696 5693 5690 5686 5682 5679 5677 5674 5672 5670 5669 5668 5667 5667 5668 5668 5670 5671 5673 5675 5678 5681 5684 5687 5689 5692 5695 5698 5702 5704 5707 5709 5712 5714 5717 5719 5721 5723
5680 5677 5673 5670 5666 5663 5660 5658 5656 5654 5652 5651 5650 5651 5651 5652 5653 5655 5657 5659 5662 5665 5669 5672 5675 5678 5682 5685 5689 5692 5694 5697 5699 5702 5705 5707 5709 5711
5663 5660 5656 5652 5649 5646 5643 5640 5638 5636 5634 5633 5633 5633 5634 5634 5636 5638 5641 5643 5646 5650 5653 5656 5660 5664 5668 5672 5675 5679 5681 5685 5687 5690 5693 5695 5697 5700
5647 5643 5639 5635 5631 5628 5625 5622 5619 5618 5616 5615 5615 5615 5616 5617 5619 5621 5624 5627 5630 5633 5637 5642 5646 5650 5653 5657 5660 5665 5668 5672 5675 5678 5680 5683 5685 5688
5629 5625 5621 5617 5613 5610 5606 5603 5601 5599 5598 5597 5597 5597 5599 5600 5602 5605 5608 5611 5615 5618 5622 5626 5630 5633 5637 5642 5647 5651 5655 5659 5662 5665 5668 5671 5674 5676
5611 5607 5603 5599 5595 5592 5588 5586 5584 5582 5580 5579 5579 5580 5581 5583 5585 5588 5591 5594 5599 5603 5607 5611 5615 5619 5623 5628 5633 5637 5641 5646 5649 5652 5656 5659 5662 5664
Wind_Speed
12 10 8 7 5 4 4 4 5 7 8 11 13 14 17 19 19 20 21 21 22 22 23 23 24 24 24 25 25 25 24 24 25 24 24 24 24 24
12 10 9 8 6 5 4 4 5 6 8 10 12 14 16 18 19 20 20 22 22 22 22 23 24 25 25 26 26 26 26 26 26 26 25 25 25 25
12 11 10 9 7 6 5 5 5 6 8 10 12 14 16 17 18 20 21 23 24 24 24 24 24 25 26 27 27 27 27 27 27 27 27 26 27 27
12 12 11 10 8 7 7 6 6 7 8 10 12 13 15 17 18 20 22 23 24 26 26 26 26 27 27 27 28 28 29 29 29 29 29 29 28 28
13 12 12 11 9 9 8 8 8 9 9 10 11 13 14 16 18 19 22 24 25 26 27 27 27 27 28 29 29 29 30 30 30 30 30 30 30 30
14 14 13 13 12 11 11 11 11 11 12 12 13 14 15 16 18 20 21 24 25 26 27 28 28 29 29 29 30 30 30 30 30 31 31 31 31 31
16 16 15 15 15 14 14 14 14 14 14 15 15 16 18 19 20 21 22 24 25 27 28 29 29 30 30 30 31 31 32 32 32 31 31 32 33 33
18 18 18 18 18 18 17 17 17 17 17 18 18 19 20 21 22 23 24 25 26 27 29 30 30 30 31 32 32 32 33 33 33 33 34 34 34 35
21 21 21 21 21 21 21 21 21 21 21 21 22 22 23 24 24 25 26 26 27 28 30 30 31 32 33 33 34 34 34 33 34 34 35 35 35 35
24 25 25 25 25 25 25 25 25 25 25 25 25 26 26 27 27 28 29 29 29 29 31 31 32 33 34 34 34 34 35 35 35 35 35 35 35 35
28 29 29 29 29 30 30 29 28 28 28 28 28 29 29 30 30 31 31 32 32 32 32 33 33 33 34 35 35 36 36 36 36 36 36 36 36 37
32 32 33 33 34 34 34 33 32 32 32 32 32 32 33 33 33 33 34 35 35 34 34 35 35 35 35 36 36 37 37 38 38 38 37 37 38 38
36 36 37 37 37 37 37 37 36 36 36 36 36 36 36 36 36 36 37 37 37 36 36 36 36 37 37 37 38 38 39 38 39 40 39 39 39 39
40 40 40 40 40 40 40 40 40 39 39 39 39 38 38 38 39 39 39 39 39 38 38 38 38 38 37 37 38 39 39 39 39 40 40 40 39 39
44 44 44 44 44 43 43 43 43 43 42 41 41 40 40 40 41 40 40 40 39 39 40 40 39 39 39 39 39 39 39 39 39 39 40 40 39 39
47 47 47 47 46 46 45 44 44 44 44 43 42 42 42 42 42 42 41 42 41 40 41 41 41 41 41 41 40 40 39 39 39 39 39 39 39 39
50 49 49 48 47 46 45 44 44 45 45 44 43 43 43 43 43 43 43 43 43 43 42 42 43 43 43 42 41 40 40 39 39 39 38 38 38 39
50 49 49 48 47 46 45 45 46 46 46 46 45 45 45 44 44 44 45 44 45 45 44 44 44 44 44 43 41 40 40 40 40 38 38 37 38 38
51 50 50 49 48 48 47 47 47 47 48 48 48 47 47 47 46 46 46 47 46 46 45 45 45 44 44 43 42 42 41 40 40 40 39 38 37 37
52 52 51 50 50 49 49 49 49 49 49 49 49 48 47 47 47 47 47 46 46 46 46 47 46 45 44 44 43 42 42 41 41 41 40 40 39 38
53 52 52 51 51 51 51 51 50 49 48 48 48 47 48 47 46 46 47 46 46 47 46 46 46 46 46 46 44 42 42 42 42 41 41 41 40 39
53 53 53 53 52 52 52 51 50 49 49 49 48 48 48 47 47 47 47 48 47 46 46 44 44 46 46 46 44 43 42 42 42 42 42 41 40 39
54 54 54 53 53 52 50 49 48 47 47 48 48 47 47 46 46 46 46 47 46 46 45 45 44 45 46 46 45 44 42 42 42 42 42 41 40 39
Wind_Direction
3 1 356 351 344 321 292 265 244 235 234 231 228 224 223 224 222 221 220 221 220 220 221 223 224 222 222 224 226 228 230 230 231 232 233 235 235 239
3 2 358 351 342 331 311 275 250 240 237 234 231 229 229 226 226 226 224 223 222 222 223 225 226 226 225 226 228 230 232 233 234 236 236 237 238 240
356 356 354 349 338 330 314 290 264 253 248 242 237 235 233 232 232 229 228 227 226 226 227 228 228 228 228 229 231 232 234 235 236 238 237 238 240 241
347 347 347 344 334 324 313 296 279 267 259 248 243 240 239 239 236 233 232 232 231 230 230 232 232 231 232 232 234 235 236 237 238 240 240 240 242 243
340 338 337 336 331 321 313 301 288 277 268 259 251 247 244 244 242 239 237 235 234 235 234 234 234 235 236 236 237 237 238 239 240 242 242 242 244 246
331 330 327 326 322 315 307 301 293 284 275 267 260 254 252 250 247 243 240 239 238 239 238 237 237 237 237 238 239 239 239 241 242 242 243 244 245 246
321 321 319 316 314 309 303 298 293 285 277 271 265 260 256 254 252 249 245 242 241 242 241 240 240 239 238 238 239 240 242 242 243 244 245 246 246 248
314 314 313 311 308 306 301 296 291 284 278 274 269 265 262 259 255 251 249 246 244 244 243 242 241 240 240 240 240 241 242 244 245 245 247 249 249 249
308 307 306 305 303 301 299 296 291 285 280 275 271 267 265 263 260 256 253 251 249 246 246 245 243 242 241 242 242 242 243 244 244 245 248 248 249 249
303 303 302 301 300 298 295 293 290 286 281 276 272 269 266 265 262 259 256 255 253 250 248 247 245 244 244 243 242 243 244 244 245 245 246 246 248 250
300 299 299 298 297 295 293 290 288 285 281 277 273 269 266 264 263 261 258 257 256 254 251 249 247 244 244 244 243 244 245 245 245 246 247 248 250 250
298 297 297 296 295 293 291 288 286 284 281 277 274 271 268 264 262 261 260 258 256 255 253 251 249 248 246 246 246 246 246 246 246 247 249 250 250 251
296 295 295 294 293 290 288 285 284 282 280 277 274 272 269 265 263 261 259 258 256 255 253 252 251 250 248 247 247 247 247 248 248 248 249 250 251 251
295 294 294 292 291 289 286 283 282 281 280 277 274 271 269 266 263 260 258 256 255 254 253 252 251 250 250 249 249 248 248 249 250 251 250 250 251 251
295 294 293 292 290 288 285 283 280 280 279 276 274 271 269 266 262 259 256 255 254 254 253 252 252 251 250 249 249 249 249 250 251 252 252 251 251 251
294 293 292 292 291 289 286 282 280 278 277 275 273 270 267 265 262 259 256 253 252 252 251 251 251 251 250 249 249 250 250 250 251 251 252 252 252 252
294 293 292 291 290 288 285 282 279 277 275 274 273 270 267 265 262 259 256 254 252 251 250 250 249 248 248 249 248 248 249 249 249 250 250 251 253 254
293 292 291 290 289 288 285 282 279 276 274 272 271 268 266 264 261 258 255 254 253 251 250 250 249 248 247 248 248 248 248 248 248 249 250 251 252 253
292 291 291 289 288 287 285 283 280 277 274 272 270 267 265 263 260 257 254 253 253 251 249 248 248 248 248 247 247 246 247 248 249 249 250 250 251 252
291 291 290 289 287 286 284 283 280 277 274 271 269 266 264 262 258 255 253 252 252 250 249 247 247 246 246 245 245 246 246 247 248 248 249 250 251 252
291 290 289 288 287 286 284 282 280 277 274 270 268 265 263 260 257 254 253 252 250 249 248 248 247 246 245 244 244 244 245 245 247 247 248 250 251 252
291 290 289 288 287 286 284 282 280 277 273 270 268 266 262 259 255 252 252 251 249 248 247 247 246 244 243 242 242 243 244 245 246 247 248 249 251 252
290 289 289 288 287 286 284 282 281 278 275 271 269 266 261 257 254 251 250 248 248 246 245 245 245 244 242 241 241 243 244 245 247 248 249 250 251 252